Overview Statistics Trail Chart Weather Telemetry Raw packets
 

This is the latest recevied weather packets stored in our database for station/object KI5NXU. If no packets are shown the sender has not sent any weather packets the latest 10 day(s).

<< 14 15 16 17 18 19 20 >>
Time Temp. Humidity Pressure Rain* Wind** Luminosity Snow
1788293270 36.11° C 40% 1014.3 hPa 0 mm - 131 W/m² -
1788292966 36.67° C 39% 1014.3 hPa 0 mm - 419 W/m² -
1788292664 36.11° C 40% 1014.7 hPa 0 mm - 665 W/m² -
1788292358 36.11° C 39% 1014.6 hPa 0 mm - 159 W/m² -
1788292053 36.11° C 40% 1014.5 hPa 0 mm - 163 W/m² -
1788291743 36.67° C 39% 1014.7 hPa 0 mm - 161 W/m² -
1788291439 36.67° C 39% 1014.8 hPa 0 mm - 150 W/m² -
1788291137 38.33° C 37% 1014.7 hPa 0 mm - 700 W/m² -
1788290833 37.78° C 36% 1014.6 hPa 0 mm - 749 W/m² -
1788290528 38.33° C 36% 1014.8 hPa 0 mm - 761 W/m² -
1788290224 38.33° C 35% 1014.8 hPa 0 mm - 724 W/m² -
1788289920 37.78° C 36% 1014.9 hPa 0 mm - 682 W/m² -
1788289615 37.78° C 36% 1015 hPa 0 mm - 679 W/m² -
1788289315 38.33° C 36% 1015 hPa 0 mm - 738 W/m² -
1788289013 37.78° C 36% 1015.2 hPa 0 mm - 769 W/m² -
1788288711 37.78° C 38% 1015.3 hPa 0 mm - 778 W/m² -
1788288408 37.22° C 39% 1015.3 hPa 0 mm - 793 W/m² -
1788288102 37.22° C 38% 1015.3 hPa 0 mm - 720 W/m² -
1788287798 37.78° C 38% 1015.4 hPa 0 mm - 757 W/m² -
1788287500 37.22° C 38% 1015.5 hPa 0 mm - 784 W/m² -
1788287189 36.11° C 40% 1015.4 hPa 0 mm - 796 W/m² -
1788286888 36.11° C 41% 1015.7 hPa 0 mm - 232 W/m² -
1788286587 36.11° C 41% 1015.7 hPa 0 mm - 713 W/m² -
1788286282 36.67° C 41% 1015.6 hPa 0 mm - 730 W/m² -
1788285976 36.11° C 40% 1015.8 hPa 0 mm - 737 W/m² -

* Rain latest hour (hover to see other rain measurements)
** Current wind speed in m/s (hover to see current wind gust speed)